Location: Beuerbach
(48.1459°N, 10.9174°E)
Time: 21:05:22
(UTC+00:00)

Cosmos 841 Rocket - Pass Details

Date: 23 May 2024
Orbit: 744 x 770 km, 74.0° (Epoch: 23 June)

Event Time Altitude Azimuth Distance (km) Brightness Sun altitude
Rises 00:24:53 0° 338° (NNW) 3,231 7.5 -19.4°
Reaches altitude 10° 00:27:17 10° 341° (NNW) 2,306 6.7 -19.2°
Maximum altitude 00:32:30 69° 65° (ENE) 820 3.7 -19.0°
Enters shadow 00:36:28 18° 147° (SSE) 1,832 5.1 -18.7°
